Regional Weather Roundup
Issued by NWS

Home | Current Version | Previous Version | Graphics & Text | Print | Product List | Glossary On
Versions: 1 2 3 4 5 6 7 8 9 10 11 12 13 14 15 16 17 18 19 20 21 22 23 24 25 26 27 28 29 30 31 32 33 34 35 36 37 38 39 40 41 42 43 44 45 46 47 48 49 50
000
ASUS43 KTOP 022059
RWRKS

WEATHER ROUNDUP FOR KANSAS
NATIONAL WEATHER SERVICE GOODLAND KS
300 PM CST FRI DEC 02 2016

NOTE:  "FAIR" INDICATES FEW OR NO CLOUDS BELOW 12,000 FEET WITH NO
SIGNIFICANT WEATHER AND/OR OBSTRUCTIONS TO VISIBILITY.

KSZ001>006-013>018-027>032-041>047-022200-
NORTHWEST KANSAS

CITY           SKY/WX    TMP DP  RH WIND       PRES   REMARKS
GOODLAND       PTSUNNY   43  14  31 VRB3      30.21F
HAYS           SUNNY     47  20  34 N8        30.24S
HILL CITY      CLOUDY    46  19  34 CALM      30.26R
RUSSELL        SUNNY     48  21  34 N8        30.23S
$$

KSZ061>065-074>080-084>089-022200-
SOUTHWEST KANSAS

CITY           SKY/WX    TMP DP  RH WIND       PRES   REMARKS
DODGE CITY     SUNNY     50  11  20 NE8       30.20S
ELKHART          N/A     44  14  29 NE10        N/A
GARDEN CITY    MOSUNNY   50  11  20 NE5       30.19S
GREAT BEND     MOSUNNY   49  17  28 N6        30.23S
LIBERAL        MOSUNNY   48  14  25 E12       30.17F
$$

KSZ066>073-081>083-090>101-022200-
SOUTHEAST KANSAS

CITY           SKY/WX    TMP DP  RH WIND       PRES   REMARKS
CHANUTE        SUNNY     57  22  25 NE9       30.21F
COFFEYVILLE    SUNNY     57  29  34 E8        30.20S
HUTCHINSON     SUNNY     52  24  33 VRB6      30.23S
MEDICINE LODGE   N/A     53  20  27 NE14      30.20F
NEWTON         SUNNY     52  23  32 NE6       30.22F
PARSONS        SUNNY     58  25  28 NE8       30.21F
WICHITA INTL   MOSUNNY   55  21  26 NE8       30.21S
WICHITA JABRA  SUNNY     52  20  28 NE8       30.21S
WINFIELD       SUNNY     56  22  26 E12       30.20S
$$

KSZ007>012-019>026-033>040-048>060-102>105-022200-
NORTHEAST KANSAS

CITY           SKY/WX    TMP DP  RH WIND       PRES   REMARKS
CONCORDIA      CLOUDY    44  27  51 NE5       30.25F
EMPORIA        SUNNY     51  23  33 NE6       30.24F
LAWRENCE       SUNNY     50  29  44 CALM      30.28S
MANHATTAN      MOSUNNY   50  26  39 NE6       30.26F
OLATHE IND     SUNNY     50  27  40 N7        30.27S
OLATHE EXE     SUNNY     49  26  41 CALM      30.26F
SALINA         SUNNY     50  24  36 CALM      30.27R
TOPEKA BILLARD SUNNY     50  26  39 VRB3      30.27F
TOPEKA FORBES  SUNNY     50  26  39 N5        30.27S
$$




USA.gov is the U.S. government's official web portal to all federal, state and local government web resources and services.